Location: PSU-Greenbush Astrophysical Observatory
(37.5140°N, 94.9880°W)
Time: 18:17:12
(UTC-06:00)

Transit 2A Rocket - All Passes

Search period start: 22 January 2020 00:00
Search period end: 01 February 2020 00:00
Orbit: 593 x 910 km, 66.7° (Epoch: 22 January)

Date Brightness Start Highest point End Pass type
(mag) Time Alt. Az. Time Alt. Az. Time Alt. Az.
22 Jan - 05:12:24 10° SSE 05:16:04 27° ESE 05:19:42 10° NE visible
22 Jan - 06:54:57 10° WSW 06:58:31 25° NW 07:02:05 10° N visible
22 Jan - 13:56:46 10° N 14:00:05 18° NE 14:03:33 10° E daylight
22 Jan - 15:38:02 10° NW 15:42:55 61° WSW 15:48:16 10° SSE daylight
23 Jan - 04:31:36 10° SE 04:33:46 14° ESE 04:35:56 10° ENE visible
23 Jan - 06:11:40 10° SW 06:15:50 46° WNW 06:20:01 10° NNE visible
23 Jan - 13:16:08 10° NNE 13:17:10 11° NE 13:18:14 10° ENE daylight
23 Jan - 14:55:28 10° NNW 15:00:25 76° ENE 15:05:50 10° SSE daylight
23 Jan - 16:40:30 10° W 16:42:29 12° WSW 16:44:32 10° SW daylight
24 Jan - 05:28:57 10° SSW 05:33:18 88° ESE 05:37:36 10° NNE visible
24 Jan - 14:13:08 10° NNW 14:17:50 42° ENE 14:22:54 10° SE daylight
24 Jan - 15:56:15 10° WNW 16:00:10 23° WSW 16:04:21 10° SSW daylight
25 Jan - 04:46:45 10° S 04:50:50 42° ESE 04:54:55 10° NE visible
25 Jan - 06:30:41 10° W 06:33:33 17° NW 06:36:27 10° N visible
25 Jan - 13:31:05 10° N 13:35:08 25° NE 13:39:28 10° ESE daylight
25 Jan - 15:13:04 10° NW 15:17:46 41° WSW 15:22:52 10° S daylight
26 Jan - 04:05:12 10° SSE 04:08:29 21° ESE 04:11:45 10° ENE visible
26 Jan - 05:46:58 10° WSW 05:50:48 30° NW 05:54:38 10° N visible
26 Jan - 12:49:28 10° NNE 12:52:20 15° NE 12:55:19 10° E daylight
26 Jan - 14:30:20 10° NNW 14:35:19 75° WSW 14:40:46 10° SSE daylight
27 Jan - 03:25:26 10° ESE 03:26:14 10° ESE 03:27:01 10° E night (unlit)
27 Jan - 05:03:54 10° SW 05:08:09 59° WNW 05:12:25 10° NNE visible
27 Jan - 13:47:51 10° NNW 13:52:47 62° ENE 13:58:10 10° SE daylight
27 Jan - 15:31:58 10° WNW 15:34:57 15° WSW 15:38:03 10° SW daylight
28 Jan - 04:21:21 10° SSW 04:25:39 69° ESE 04:29:56 10° NNE visible
28 Jan - 06:06:58 10° WNW 06:08:40 12° NW 06:10:23 10° NNW visible
28 Jan - 13:05:37 10° N 13:10:10 35° ENE 13:15:05 10° ESE daylight
28 Jan - 14:48:18 10° NW 14:52:36 28° WSW 14:57:14 10° SSW daylight
29 Jan - 03:39:21 10° S 03:43:15 33° ESE 03:47:06 10° NE visible
29 Jan - 05:22:32 10° WSW 05:25:49 21° NW 05:29:07 10° N visible
29 Jan - 12:23:40 10° N 12:27:26 21° NE 12:31:26 10° E daylight
29 Jan - 14:05:18 10° NW 14:10:11 50° WSW 14:15:30 10° S daylight
30 Jan - 02:58:08 10° SSE 03:00:55 17° ESE 03:03:41 10° ENE night (unlit)
30 Jan - 04:39:05 10° SW 04:43:05 37° WNW 04:47:08 10° NNE visible
30 Jan - 11:42:19 10° NNE 11:44:34 13° NE 11:46:54 10° ENE daylight
30 Jan - 13:22:39 10° NNW 13:27:42 90° ENE 13:33:13 10° SSE daylight
31 Jan - 03:56:12 10° SSW 04:00:30 75° WNW 04:04:49 10° NNE visible
31 Jan - 12:40:15 10° NNW 12:45:08 51° ENE 12:50:27 10° SE daylight
31 Jan - 14:23:46 10° WNW 14:27:23 19° WSW 14:31:13 10° SSW daylight
